[keps] orb10259.amsat
Keith Pugh
w5iu at swbell.net
Sun Sep 19 14:24:30 PDT 2010
SB KEPS @ AMSAT $ORB10259.O
Orbital Elements 10259.OSCAR
HR AMSAT ORBITAL ELEMENTS FOR OSCAR SATELLITES
FROM WA5QGD FORT WORTH,TX September 16, 2010
Send Subscribe/unsubscribe to KEPS at
http://www.amsat.org/mailman/listinfo/keps
BID: ORB10259.O
TO ALL RADIO AMATEURS BT
Satellite: AO-07
Catalog number: 07530
Epoch time: 10258.62315395
Element set: 0881
Inclination: 101.4013 deg
RA of node: 270.9793 deg
Eccentricity: 0.0012095
Arg of perigee: 096.4317 deg
Mean anomaly: 263.8130 deg
Mean motion: 12.53579594 rev/day
Decay rate: -2.7e-07 rev/day^2
Epoch rev: 63978
Checksum: 310
Satellite: FO-29
Catalog number: 24278
Epoch time: 10258.91649268
Element set: 0401
Inclination: 098.5156 deg
RA of node: 075.5171 deg
Eccentricity: 0.0349805
Arg of perigee: 248.4411 deg
Mean anomaly: 107.9123 deg
Mean motion: 13.52952926 rev/day
Decay rate: 6.5e-07 rev/day^2
Epoch rev: 69537
Checksum: 332
Satellite: SO-33
Catalog number: 25509
Epoch time: 10258.63155429
Element set: 0796
Inclination: 031.4362 deg
RA of node: 357.0458 deg
Eccentricity: 0.0353359
Arg of perigee: 000.6505 deg
Mean anomaly: 359.4548 deg
Mean motion: 14.28327698 rev/day
Decay rate: 6.3e-07 rev/day^2
Epoch rev: 62099
Checksum: 329
Satellite: RS-22
Catalog number: 27939
Epoch time: 10259.67565767
Element set: 550
Inclination: 097.8784 deg
RA of node: 121.2185 deg
Eccentricity: 0.0014337
Arg of perigee: 127.2456 deg
Mean anomaly: 233.0057 deg
Mean motion: 14.63451434 rev/day
Decay rate: 1.8e-07 rev/day^2
Epoch rev: 37233
Checksum: 311
Satellite: VO-52
Catalog number: 28650
Epoch time: 10259.29573543
Element set: 598
Inclination: 097.6811 deg
RA of node: 309.1308 deg
Eccentricity: 0.0026838
Arg of perigee: 341.2433 deg
Mean anomaly: 018.7863 deg
Mean motion: 14.81805035 rev/day
Decay rate: 8.7e-07 rev/day^2
Epoch rev: 29018
Checksum: 322
Satellite: SO-67
Catalog number: 35870
Epoch time: 10259.89380163
Element set: 112
Inclination: 097.3221 deg
RA of node: 306.5607 deg
Eccentricity: 0.0004149
Arg of perigee: 119.1579 deg
Mean anomaly: 343.9559 deg
Mean motion: 15.21048720 rev/day
Decay rate: 6.34e-06 rev/day^2
Epoch rev: 5539
Checksum: 310
Satellite: HO-68
Catalog number: 36122
Epoch time: 10259.76193637
Element set: 678
Inclination: 100.4600 deg
RA of node: 319.2254 deg
Eccentricity: 0.0007765
Arg of perigee: 126.8836 deg
Mean anomaly: 233.2992 deg
Mean motion: 13.16281749 rev/day
Decay rate: -4.5e-07 rev/day^2
Epoch rev: 3626
Checksum: 314
/EX
SB KEPS @ AMSAT $ORB10259.D
Orbital Elements 10259.MICROS
HR AMSAT ORBITAL ELEMENTS FOR THE MICROSATS
FROM WA5QGD FORT WORTH,TX September 16, 2010
Send Subscribe/unsubscribe to KEPS at
http://www.amsat.org/mailman/listinfo/keps
BID: ORB10259.D
TO ALL RADIO AMATEURS BT
Satellite: UO-11
Catalog number: 14781
Epoch time: 10259.30491198
Element set: 340
Inclination: 098.0441 deg
RA of node: 311.2749 deg
Eccentricity: 0.0008361
Arg of perigee: 309.7917 deg
Mean anomaly: 050.2620 deg
Mean motion: 14.79832796 rev/day
Decay rate: -5.5e-07 rev/day^2
Epoch rev: 42528
Checksum: 303
Satellite: AO-16
Catalog number: 20439
Epoch time: 10259.38106007
Element set: 995
Inclination: 098.3421 deg
RA of node: 213.7421 deg
Eccentricity: 0.0009981
Arg of perigee: 255.5278 deg
Mean anomaly: 104.4805 deg
Mean motion: 14.31873671 rev/day
Decay rate: 2.0e-08 rev/day^2
Epoch rev: 7843
Checksum: 297
Satellite: LO-19
Catalog number: 20442
Epoch time: 10259.43403797
Element set: 904
Inclination: 098.3045 deg
RA of node: 219.2280 deg
Eccentricity: 0.0010960
Arg of perigee: 249.5354 deg
Mean anomaly: 110.4660 deg
Mean motion: 14.32103381 rev/day
Decay rate: -3.8e-07 rev/day^2
Epoch rev: 7861
Checksum: 279
Satellite: AO-27
Catalog number: 22825
Epoch time: 10259.78862082
Element set: 627
Inclination: 098.4935 deg
RA of node: 205.4031 deg
Eccentricity: 0.0008493
Arg of perigee: 005.9303 deg
Mean anomaly: 354.1975 deg
Mean motion: 14.29308533 rev/day
Decay rate: 1.24e-06 rev/day^2
Epoch rev: 88513
Checksum: 312
Satellite: IO-26
Catalog number: 22826
Epoch time: 10258.71779011
Element set: 0367
Inclination: 098.4879 deg
RA of node: 204.9270 deg
Eccentricity: 0.0009047
Arg of perigee: 004.3468 deg
Mean anomaly: 355.7793 deg
Mean motion: 14.29565060 rev/day
Decay rate: 2.7e-07 rev/day^2
Epoch rev: 88509
Checksum: 334
Satellite: GO-32
Catalog number: 25397
Epoch time: 10259.77898044
Element set: 285
Inclination: 098.3156 deg
RA of node: 262.1974 deg
Eccentricity: 0.0001615
Arg of perigee: 034.8754 deg
Mean anomaly: 325.2512 deg
Mean motion: 14.23184172 rev/day
Decay rate: -1.18e-06 rev/day^2
Epoch rev: 63307
Checksum: 310
Satellite: NO-44
Catalog number: 26931
Epoch time: 10259.64210238
Element set: 559
Inclination: 067.0532 deg
RA of node: 328.3450 deg
Eccentricity: 0.0005354
Arg of perigee: 270.9869 deg
Mean anomaly: 089.0620 deg
Mean motion: 14.29610626 rev/day
Decay rate: 8.0e-07 rev/day^2
Epoch rev: 46782
Checksum: 305
Satellite: SO-50
Catalog number: 27607
Epoch time: 10259.00511672
Element set: 270
Inclination: 064.5573 deg
RA of node: 080.6605 deg
Eccentricity: 0.0041001
Arg of perigee: 037.4308 deg
Mean anomaly: 322.9652 deg
Mean motion: 14.71575262 rev/day
Decay rate: 3.5e-07 rev/day^2
Epoch rev: 41574
Checksum: 270
Satellite: CO-55
Catalog number: 27844
Epoch time: 10258.59315469
Element set: 936
Inclination: 098.7112 deg
RA of node: 266.2776 deg
Eccentricity: 0.0009013
Arg of perigee: 273.4422 deg
Mean anomaly: 086.5714 deg
Mean motion: 14.20729403 rev/day
Decay rate: 6.1e-07 rev/day^2
Epoch rev: 37392
Checksum: 317
Satellite: CO-57
Catalog number: 27848
Epoch time: 10258.98816857
Element set: 883
Inclination: 098.7156 deg
RA of node: 265.7777 deg
Eccentricity: 0.0008983
Arg of perigee: 277.2990 deg
Mean anomaly: 082.7179 deg
Mean motion: 14.20520261 rev/day
Decay rate: 3.6e-07 rev/day^2
Epoch rev: 37393
Checksum: 371
Satellite: AO-51
Catalog number: 28375
Epoch time: 10259.47770074
Element set: 775
Inclination: 098.0697 deg
RA of node: 247.8129 deg
Eccentricity: 0.0083177
Arg of perigee: 179.7507 deg
Mean anomaly: 180.3743 deg
Mean motion: 14.40698597 rev/day
Decay rate: 2.2e-07 rev/day^2
Epoch rev: 32665
Checksum: 353
Satellite: GENESAT1
Catalog number: 29655
Epoch time: 10216.61700559
Element set: 226
Inclination: 040.0059 deg
RA of node: 067.3006 deg
Eccentricity: 0.0005079
Arg of perigee: 297.8744 deg
Mean anomaly: 064.7087 deg
Mean motion: 16.44862838 rev/day
Decay rate: 1.0637092e-01 rev/day^2
Epoch rev: 20777
Checksum: 320
Satellite: CP3
Catalog number: 31129
Epoch time: 10258.67853945
Element set: 676
Inclination: 097.9299 deg
RA of node: 293.3723 deg
Eccentricity: 0.0101044
Arg of perigee: 313.6233 deg
Mean anomaly: 045.6609 deg
Mean motion: 14.52300893 rev/day
Decay rate: -1.61e-06 rev/day^2
Epoch rev: 18099
Checksum: 316
Satellite: CO-65
Catalog number: 32785
Epoch time: 10259.19739623
Element set: 785
Inclination: 097.8865 deg
RA of node: 322.8240 deg
Eccentricity: 0.0015261
Arg of perigee: 353.2735 deg
Mean anomaly: 006.8346 deg
Mean motion: 14.81713160 rev/day
Decay rate: 1.2e-07 rev/day^2
Epoch rev: 12896
Checksum: 319
Satellite: KKS-1
Catalog number: 33493
Epoch time: 10259.86643576
Element set: 858
Inclination: 098.0957 deg
RA of node: 020.1938 deg
Eccentricity: 0.0019391
Arg of perigee: 201.5684 deg
Mean anomaly: 158.4721 deg
Mean motion: 14.81098310 rev/day
Decay rate: 5.55e-06 rev/day^2
Epoch rev: 8905
Checksum: 326
Satellite: SOHLA-1
Catalog number: 33496
Epoch time: 10259.40277110
Element set: 205
Inclination: 098.0635 deg
RA of node: 007.3247 deg
Eccentricity: 0.0005578
Arg of perigee: 276.8333 deg
Mean anomaly: 083.2253 deg
Mean motion: 14.69514923 rev/day
Decay rate: 2.9e-07 rev/day^2
Epoch rev: 8827
Checksum: 297
Satellite: TISAT-1
Catalog number: 36799
Epoch time: 10259.72239900
Element set: 131
Inclination: 098.1394 deg
RA of node: 319.8165 deg
Eccentricity: 0.0016728
Arg of perigee: 080.2781 deg
Mean anomaly: 280.0319 deg
Mean motion: 14.80165796 rev/day
Decay rate: 3.02e-06 rev/day^2
Epoch rev: 985
Checksum: 313
Satellite: STUDSAT
Catalog number: 36801
Epoch time: 10258.73310416
Element set: 64
Inclination: 098.1409 deg
RA of node: 318.7510 deg
Eccentricity: 0.0015231
Arg of perigee: 071.4970 deg
Mean anomaly: 288.7894 deg
Mean motion: 14.79641816 rev/day
Decay rate: 8.72e-06 rev/day^2
Epoch rev: 970
Checksum: 300
/EX
SB KEPS @ AMSAT $ORB10259.W
Orbital Elements 10259.WEATHER
HR AMSAT ORBITAL ELEMENTS FOR WEATHER SATELLITES
FROM WA5QGD FORT WORTH,TX September 16, 2010
Send Subscribe/unsubscribe to KEPS at
http://www.amsat.org/mailman/listinfo/keps
BID: ORB10259.W
TO ALL RADIO AMATEURS BT
Satellite: NOAA-10
Catalog number: 16969
Epoch time: 10258.71721888
Element set: 0205
Inclination: 098.6511 deg
RA of node: 286.8115 deg
Eccentricity: 0.0011712
Arg of perigee: 310.4976 deg
Mean anomaly: 049.5154 deg
Mean motion: 14.27425645 rev/day
Decay rate: -2.09e-06 rev/day^2
Epoch rev: 24849
Checksum: 317
Satellite: NOAA-11
Catalog number: 19531
Epoch time: 10258.82538880
Element set: 0215
Inclination: 098.7668 deg
RA of node: 346.2989 deg
Eccentricity: 0.0010705
Arg of perigee: 249.8228 deg
Mean anomaly: 110.1795 deg
Mean motion: 14.14934147 rev/day
Decay rate: -2.16e-06 rev/day^2
Epoch rev: 13395
Checksum: 323
Satellite: NOAA-12
Catalog number: 21263
Epoch time: 10258.74715395
Element set: 0709
Inclination: 098.7648 deg
RA of node: 271.8952 deg
Eccentricity: 0.0011507
Arg of perigee: 264.8435 deg
Mean anomaly: 095.1418 deg
Mean motion: 14.25653618 rev/day
Decay rate: 3.6e-07 rev/day^2
Epoch rev: 00530
Checksum: 309
Satellite: MET-3/5
Catalog number: 21655
Epoch time: 10259.64672143
Element set: 915
Inclination: 082.5538 deg
RA of node: 244.0072 deg
Eccentricity: 0.0014816
Arg of perigee: 117.7097 deg
Mean anomaly: 242.5502 deg
Mean motion: 13.17022118 rev/day
Decay rate: 5.1e-07 rev/day^2
Epoch rev: 91771
Checksum: 282
